Location: Unspecified
(47.2500°N, 0.0000°E)
Time: 06:46:09
(UTC+00:00)

OTV 5 (USA 277) - Visible Passes

Search period start: 20 October 2019 00:00
Search period end: 30 October 2019 00:00
Orbit: 310 x 324 km, 54.5° (Epoch: 17 October)

Date Brightness Start Highest point End Pass type
(mag) Time Alt. Az. Time Alt. Az. Time Alt. Az.
20 Oct ? 05:05:03 24° SW 05:05:03 24° SW 05:07:11 10° SSE visible
28 Oct ? 18:37:48 10° SSW 18:38:41 17° S 18:38:41 17° S visible
29 Oct ? 18:51:57 10° SW 18:53:10 23° SW 18:53:10 23° SW visible
